Location: Jewell
(31.5029°N, 97.1961°W)
Time: 08:38:45
(UTC+00:00)

ARIANE 6 FM1 Upper Stage - Pass Details

Date: 14 December 2025
Orbit: 522 x 610 km, 62.0° (Epoch: 18 January)

Event Time Altitude Azimuth Distance (km) Brightness Sun altitude
Rises 11:13:54 0° 172° (S) 2,721 6.4 -26.1°
Reaches altitude 10° 11:16:53 10° 149° (SSE) 1,811 5.8 -25.5°
Maximum altitude 11:19:17 15° 113° (ESE) 1,491 5.7 -25.0°
Drops below altitude 10° 11:21:40 10° 77° (ENE) 1,790 6.1 -24.5°
Sets 11:24:35 0° 54° (NE) 2,671 6.7 -23.9°
